| time (UTC) | temp F | wind direction | speed MPH | gust MPH | rain 1hr in | rain 24hr in | rain mn in | humidity % | barometer mb |
| 20260509081953 | 49 | 164 | 3.0 | 5.0 | 0.00 | 0.00 | 0.00 | 91 | 1005.1 |
| 20260509081450 | 49 | 179 | 3.0 | 8.0 | 0.00 | 0.00 | 0.00 | 91 | 1005.1 |
| 20260509080947 | 49 | 159 | 4.0 | 6.0 | 0.00 | 0.00 | 0.00 | 90 | 1004.9 |
| 20260509080445 | 49 | 172 | 3.0 | 6.0 | 0.00 | 0.00 | 0.00 | 90 | 1005.1 |
| 20260509075943 | 49 | 175 | 2.0 | 5.0 | 0.00 | 0.00 | 0.00 | 89 | 1005.0 |
| 20260509075440 | 49 | 128 | 1.0 | 5.0 | 0.00 | 0.00 | 0.00 | 88 | 1005.1 |
| 20260509074938 | 49 | 161 | 3.0 | 7.0 | 0.00 | 0.00 | 0.00 | 87 | 1005.2 |
| 20260509074435 | 49 | 173 | 2.0 | 5.0 | 0.00 | 0.00 | 0.00 | 87 | 1005.3 |
| 20260509073931 | 49 | 178 | 3.0 | 6.0 | 0.00 | 0.00 | 0.00 | 86 | 1005.2 |
| 20260509073428 | 49 | 179 | 3.0 | 6.0 | 0.00 | 0.00 | 0.00 | 85 | 1005.3 |
| 20260509072924 | 49 | 138 | 2.0 | 6.0 | 0.00 | 0.00 | 0.00 | 84 | 1005.3 |
| 20260509072421 | 49 | 172 | 3.0 | 5.0 | 0.00 | 0.00 | 0.00 | 83 | 1005.5 |
| 20260509071917 | 49 | 201 | 1.0 | 6.0 | 0.00 | 0.00 | 0.00 | 82 | 1005.5 |
| 20260509071414 | 49 | 171 | 2.0 | 5.0 | 0.00 | 0.00 | 0.00 | 81 | 1005.6 |
| 20260509070912 | 49 | 194 | 3.0 | 6.0 | 0.00 | 0.00 | 0.00 | 80 | 1005.6 |
| 20260509070408 | 50 | 178 | 3.0 | 6.0 | 0.00 | 0.00 | 0.00 | 79 | 1005.8 |
| 20260509065904 | 50 | 193 | 2.0 | 5.0 | 0.00 | 0.00 | 0.00 | 78 | 1005.7 |
| 20260509065401 | 50 | 137 | 2.0 | 8.0 | 0.00 | 0.00 | 0.00 | 76 | 1005.6 |
| 20260509064857 | 50 | 185 | 3.0 | 7.0 | 0.00 | 0.00 | 0.00 | 75 | 1005.8 |
| 20260509064354 | 50 | 184 | 4.0 | 7.0 | 0.00 | 0.00 | 0.00 | 73 | 1005.7 |
| 20260509063852 | 50 | 149 | 2.0 | 4.0 | 0.00 | 0.00 | 0.00 | 70 | 1006.0 |
| 20260509063347 | 50 | 176 | 3.0 | 6.0 | 0.00 | 0.00 | 0.00 | 68 | 1006.0 |
| 20260509062839 | 50 | 187 | 3.0 | 6.0 | 0.00 | 0.00 | 0.00 | 64 | 1005.8 |
| 20260509062336 | 51 | 133 | 3.0 | 7.0 | 0.00 | 0.00 | 0.00 | 60 | 1005.9 |
| 20260509061833 | 51 | 177 | 2.0 | 7.0 | 0.00 | 0.00 | 0.00 | 57 | 1006.0 |
| 20260509061331 | 51 | 188 | 3.0 | 6.0 | 0.00 | 0.00 | 0.00 | 52 | 1006.1 |
| 20260509060828 | 51 | 171 | 2.0 | 5.0 | 0.00 | 0.00 | 0.00 | 49 | 1006.0 |
| 20260509060326 | 51 | 148 | 4.0 | 7.0 | 0.00 | 0.00 | 0.00 | 47 | 1006.1 |
| 20260509055820 | 51 | 228 | 2.0 | 5.0 | 0.00 | 0.00 | 0.00 | 47 | 1006.1 |
| 20260509055316 | 51 | 191 | 3.0 | 6.0 | 0.00 | 0.00 | 0.00 | 46 | 1006.4 |
| 20260509054813 | 50 | 178 | 2.0 | 4.0 | 0.00 | 0.00 | 0.00 | 47 | 1006.2 |
| 20260509054310 | 50 | 163 | 1.0 | 4.0 | 0.00 | 0.00 | 0.00 | 46 | 1006.2 |
| 20260509053808 | 50 | 168 | 3.0 | 3.0 | 0.00 | 0.00 | 0.00 | 44 | 1006.2 |
| 20260509053305 | 50 | 156 | 1.0 | 4.0 | 0.00 | 0.00 | 0.00 | 42 | 1006.4 |
| 20260509052804 | 50 | 160 | 1.0 | 3.0 | 0.00 | 0.00 | 0.00 | 41 | 1006.5 |
| 20260509052301 | 50 | 145 | 1.0 | 3.0 | 0.00 | 0.00 | 0.00 | 41 | 1006.7 |
| 20260509051758 | 50 | 142 | 2.0 | 3.0 | 0.00 | 0.00 | 0.00 | 41 | 1006.6 |
| 20260509051256 | 49 | 139 | 1.0 | 3.0 | 0.00 | 0.00 | 0.00 | 41 | 1006.6 |
| 20260509050752 | 49 | 103 | 0.0 | 3.0 | 0.00 | 0.00 | 0.00 | 42 | 1006.6 |
| 20260509050248 | 49 | 126 | 2.0 | 3.0 | 0.00 | 0.00 | 0.00 | 42 | 1006.7 |
| 20260509045746 | 49 | 167 | 0.0 | 3.0 | 0.00 | 0.00 | 0.00 | 41 | 1006.8 |
| 20260509045242 | 49 | 129 | 1.0 | 2.0 | 0.00 | 0.00 | 0.00 | 41 | 1006.7 |
| 20260509044740 | 50 | 151 | 2.0 | 3.0 | 0.00 | 0.00 | 0.00 | 40 | 1006.6 |
| 20260509044238 | 50 | 129 | 2.0 | 3.0 | 0.00 | 0.00 | 0.00 | 41 | 1006.8 |
| 20260509043734 | 50 | 169 | 2.0 | 3.0 | 0.00 | 0.00 | 0.00 | 39 | 1007.0 |
| 20260509043230 | 50 | 142 | 2.0 | 3.0 | 0.00 | 0.00 | 0.00 | 40 | 1006.9 |
| 20260509042726 | 49 | 121 | 0.0 | 3.0 | 0.00 | 0.00 | 0.00 | 44 | 1006.9 |
| 20260509042223 | 48 | 131 | 1.0 | 2.0 | 0.00 | 0.00 | 0.00 | 45 | 1007.0 |
| 20260509041719 | 48 | 106 | 0.0 | 1.0 | 0.00 | 0.00 | 0.00 | 45 | 1007.0 |
| 20260509041217 | 48 | 75 | 0.0 | 1.0 | 0.00 | 0.00 | 0.00 | 44 | 1007.0 |
| 20260509040715 | 48 | 112 | 0.0 | 2.0 | 0.00 | 0.00 | 0.00 | 44 | 1007.1 |
| 20260509040212 | 48 | 117 | 1.0 | 2.0 | 0.00 | 0.00 | 0.00 | 47 | 1007.1 |
| 20260509035708 | 47 | 89 | 0.0 | 1.0 | 0.00 | 0.00 | 0.00 | 46 | 1007.0 |
| 20260509035205 | 47 | 89 | 0.0 | 1.0 | 0.00 | 0.00 | 0.00 | 46 | 1007.1 |
| 20260509034702 | 48 | 84 | 0.0 | 2.0 | 0.00 | 0.00 | 0.00 | 45 | 1007.2 |
| 20260509034159 | 48 | 124 | 0.0 | 2.0 | 0.00 | 0.00 | 0.00 | 47 | 1007.1 |
| 20260509033656 | 48 | 89 | 0.0 | 1.0 | 0.00 | 0.00 | 0.00 | 46 | 1007.1 |
| 20260509033153 | 48 | 89 | 0.0 | 2.0 | 0.00 | 0.00 | 0.00 | 46 | 1007.3 |
| 20260509032650 | 48 | 89 | 0.0 | 2.0 | 0.00 | 0.00 | 0.00 | 45 | 1007.3 |
| 20260509032147 | 48 | 97 | 0.0 | 1.0 | 0.00 | 0.00 | 0.00 | 47 | 1007.2 |
| 20260509031645 | 48 | 72 | 0.0 | 2.0 | 0.00 | 0.00 | 0.00 | 46 | 1007.4 |
| 20260509031142 | 48 | 104 | 0.0 | 2.0 | 0.00 | 0.00 | 0.00 | 45 | 1007.3 |
| 20260509030641 | 49 | 129 | 0.0 | 2.0 | 0.00 | 0.00 | 0.00 | 47 | 1007.5 |
| 20260509030137 | 49 | 89 | 0.0 | 2.0 | 0.00 | 0.00 | 0.00 | 46 | 1007.4 |
| 20260509025633 | 49 | 124 | 0.0 | 1.0 | 0.00 | 0.00 | 0.00 | 48 | 1007.5 |
| 20260509025129 | 49 | 106 | 0.0 | 2.0 | 0.00 | 0.00 | 0.00 | 46 | 1007.6 |
| 20260509024625 | 49 | 93 | 1.0 | 1.0 | 0.00 | 0.00 | 0.00 | 46 | 1007.6 |
| 20260509024121 | 50 | 89 | 1.0 | 1.0 | 0.00 | 0.00 | 0.00 | 47 | 1007.6 |
| 20260509023619 | 50 | 141 | 0.0 | 1.0 | 0.00 | 0.00 | 0.00 | 47 | 1007.5 |
| 20260509023116 | 50 | 133 | 0.0 | 1.0 | 0.00 | 0.00 | 0.00 | 45 | 1007.7 |
| 20260509022612 | 50 | 112 | 1.0 | 1.0 | 0.00 | 0.00 | 0.00 | 41 | 1007.6 |
| 20260509022105 | 50 | 113 | 1.0 | 2.0 | 0.00 | 0.00 | 0.00 | 42 | 1007.7 |
| 20260509021602 | 50 | 128 | 0.0 | 2.0 | 0.00 | 0.00 | 0.00 | 42 | 1007.6 |
| 20260509021058 | 51 | 92 | 1.0 | 2.0 | 0.00 | 0.00 | 0.00 | 42 | 1007.5 |
| 20260509020556 | 51 | 49 | 0.0 | 1.0 | 0.00 | 0.00 | 0.00 | 41 | 1007.7 |
| 20260509020053 | 52 | 97 | 1.0 | 2.0 | 0.00 | 0.00 | 0.00 | 39 | 1007.5 |
| 20260509015547 | 52 | 93 | 1.0 | 2.0 | 0.00 | 0.00 | 0.00 | 39 | 1007.6 |
| 20260509015044 | 53 | 113 | 1.0 | 2.0 | 0.00 | 0.00 | 0.00 | 39 | 1007.4 |
| 20260509014540 | 53 | 121 | 1.0 | 2.0 | 0.00 | 0.00 | 0.00 | 38 | 1007.5 |
| 20260509014036 | 54 | 121 | 1.0 | 2.0 | 0.00 | 0.00 | 0.00 | 36 | 1007.6 |
| 20260509013534 | 55 | 115 | 0.0 | 2.0 | 0.00 | 0.00 | 0.00 | 36 | 1007.3 |
| 20260509013029 | 55 | 129 | 0.0 | 2.0 | 0.00 | 0.00 | 0.00 | 34 | 1007.3 |
| 20260509012526 | 56 | 144 | 0.0 | 2.0 | 0.00 | 0.00 | 0.00 | 35 | 1007.3 |
| 20260509012023 | 56 | 98 | 1.0 | 2.0 | 0.00 | 0.00 | 0.00 | 35 | 1007.5 |
| 20260509011521 | 56 | 55 | 2.0 | 3.0 | 0.00 | 0.00 | 0.00 | 35 | 1007.2 |
| 20260509011018 | 57 | 109 | 1.0 | 2.0 | 0.00 | 0.00 | 0.00 | 35 | 1007.3 |
| 20260509010515 | 57 | 25 | 0.0 | 4.0 | 0.00 | 0.00 | 0.00 | 34 | 1007.3 |
| 20260509010011 | 57 | 72 | 2.0 | 4.0 | 0.00 | 0.00 | 0.00 | 35 | 1007.2 |
| 20260509005509 | 58 | 70 | 0.0 | 4.0 | 0.00 | 0.00 | 0.00 | 33 | 1007.0 |
| 20260509005004 | 59 | 104 | 0.0 | 5.0 | 0.00 | 0.00 | 0.00 | 33 | 1007.0 |
| 20260509004501 | 59 | 333 | 5.0 | 8.0 | 0.00 | 0.00 | 0.00 | 33 | 1006.9 |
| 20260509003958 | 59 | 44 | 0.0 | 3.0 | 0.00 | 0.00 | 0.00 | 34 | 1006.9 |
| 20260509003457 | 60 | 45 | 1.0 | 4.0 | 0.00 | 0.00 | 0.00 | 31 | 1007.0 |
| 20260509002953 | 60 | 341 | 2.0 | 5.0 | 0.00 | 0.00 | 0.00 | 31 | 1006.6 |
| 20260509002451 | 60 | 177 | 2.0 | 3.0 | 0.00 | 0.00 | 0.00 | 33 | 1006.7 |
| 20260509001948 | 61 | 180 | 0.0 | 3.0 | 0.00 | 0.00 | 0.00 | 33 | 1006.9 |
| 20260509001444 | 61 | 125 | 0.0 | 5.0 | 0.00 | 0.00 | 0.00 | 33 | 1006.5 |
| 20260509000941 | 61 | 149 | 4.0 | 5.0 | 0.00 | 0.00 | 0.00 | 32 | 1006.7 |
| 20260509000440 | 61 | 134 | 3.0 | 5.0 | 0.00 | 0.00 | 0.00 | 35 | 1006.7 |
| 20260508235935 | 62 | 193 | 2.0 | 6.0 | 0.00 | 0.00 | 0.00 | 35 | 1006.7 |
| 20260508235433 | 62 | 163 | 2.0 | 6.0 | 0.00 | 0.00 | 0.00 | 34 | 1006.7 |
| 20260508234929 | 62 | 170 | 1.0 | 3.0 | 0.00 | 0.00 | 0.00 | 36 | 1006.4 |
| 20260508234426 | 62 | 186 | 1.0 | 7.0 | 0.00 | 0.00 | 0.00 | 35 | 1006.7 |
| 20260508233924 | 62 | 167 | 3.0 | 5.0 | 0.00 | 0.00 | 0.00 | 35 | 1006.5 |
| 20260508233423 | 62 | 168 | 2.0 | 3.0 | 0.00 | 0.00 | 0.00 | 35 | 1006.5 |
| 20260508232920 | 62 | 207 | 1.0 | 3.0 | 0.00 | 0.00 | 0.00 | 34 | 1006.6 |
| 20260508232417 | 63 | 135 | 0.0 | 4.0 | 0.00 | 0.00 | 0.00 | 35 | 1006.6 |
| 20260508231914 | 64 | 141 | 0.0 | 3.0 | 0.00 | 0.00 | 0.00 | 33 | 1006.6 |
| 20260508231411 | 64 | 160 | 3.0 | 6.0 | 0.00 | 0.00 | 0.00 | 32 | 1006.5 |
| 20260508230908 | 65 | 115 | 2.0 | 4.0 | 0.00 | 0.00 | 0.00 | 33 | 1006.7 |
| 20260508230404 | 65 | 193 | 0.0 | 5.0 | 0.00 | 0.00 | 0.00 | 33 | 1006.5 |
| 20260508225901 | 65 | 52 | 2.0 | 5.0 | 0.00 | 0.00 | 0.00 | 32 | 1006.7 |
| 20260508225358 | 65 | 166 | 2.0 | 6.0 | 0.00 | 0.00 | 0.00 | 32 | 1006.8 |
| 20260508224856 | 65 | 154 | 3.0 | 6.0 | 0.00 | 0.00 | 0.00 | 33 | 1006.7 |
| 20260508224353 | 66 | 235 | 2.0 | 6.0 | 0.00 | 0.00 | 0.00 | 33 | 1006.8 |
| 20260508223850 | 65 | 60 | 1.0 | 4.0 | 0.00 | 0.00 | 0.00 | 32 | 1006.9 |
| 20260508223348 | 65 | 181 | 4.0 | 7.0 | 0.00 | 0.00 | 0.00 | 32 | 1006.8 |
| 20260508222846 | 65 | 123 | 2.0 | 7.0 | 0.00 | 0.00 | 0.00 | 33 | 1006.9 |
| 20260508222342 | 64 | 160 | 0.0 | 9.0 | 0.00 | 0.00 | 0.00 | 32 | 1006.8 |
| 20260508221839 | 64 | 194 | 4.0 | 7.0 | 0.00 | 0.00 | 0.00 | 33 | 1006.9 |
| 20260508221334 | 66 | 166 | 5.0 | 9.0 | 0.00 | 0.00 | 0.00 | 30 | 1006.9 |
| 20260508220831 | 66 | 182 | 3.0 | 11.0 | 0.00 | 0.00 | 0.00 | 31 | 1006.8 |
| 20260508220327 | 67 | 183 | 4.0 | 10.0 | 0.00 | 0.00 | 0.00 | 31 | 1006.8 |
| 20260508215824 | 67 | 173 | 3.0 | 6.0 | 0.00 | 0.00 | 0.00 | 31 | 1006.9 |
| 20260508215321 | 66 | 118 | 3.0 | 7.0 | 0.00 | 0.00 | 0.00 | 30 | 1007.0 |
| 20260508214818 | 68 | 336 | 2.0 | 3.0 | 0.00 | 0.00 | 0.00 | 31 | 1006.9 |
| 20260508214315 | 67 | 132 | 2.0 | 6.0 | 0.00 | 0.00 | 0.00 | 31 | 1007.2 |
| 20260508213811 | 66 | 218 | 3.0 | 12.0 | 0.00 | 0.00 | 0.00 | 32 | 1007.2 |
| 20260508213308 | 67 | 181 | 5.0 | 9.0 | 0.00 | 0.00 | 0.00 | 31 | 1007.1 |
| 20260508212804 | 66 | 287 | 3.0 | 9.0 | 0.00 | 0.00 | 0.00 | 32 | 1007.1 |
| 20260508212301 | 66 | 342 | 4.0 | 7.0 | 0.00 | 0.00 | 0.00 | 34 | 1007.2 |
| 20260508211756 | 66 | 320 | 2.0 | 7.0 | 0.00 | 0.00 | 0.00 | 33 | 1007.4 |
| 20260508211252 | 66 | 199 | 3.0 | 9.0 | 0.00 | 0.00 | 0.00 | 31 | 1007.2 |
| 20260508210750 | 68 | 233 | 2.0 | 5.0 | 0.00 | 0.00 | 0.00 | 31 | 1007.2 |
| 20260508210247 | 68 | 135 | 0.0 | 5.0 | 0.00 | 0.00 | 0.00 | 33 | 1007.3 |
| 20260508205744 | 67 | 165 | 4.0 | 7.0 | 0.00 | 0.00 | 0.00 | 30 | 1007.5 |
| 20260508205240 | 68 | 358 | 1.0 | 6.0 | 0.00 | 0.00 | 0.00 | 31 | 1007.4 |
| 20260508204737 | 68 | 193 | 5.0 | 6.0 | 0.00 | 0.00 | 0.00 | 29 | 1007.5 |
| 20260508204233 | 68 | 200 | 2.0 | 3.0 | 0.00 | 0.00 | 0.00 | 29 | 1007.4 |
| 20260508203729 | 67 | 227 | 5.0 | 8.0 | 0.00 | 0.00 | 0.00 | 30 | 1007.5 |
| 20260508203225 | 66 | 167 | 5.0 | 9.0 | 0.00 | 0.00 | 0.00 | 30 | 1007.6 |
| 20260508202721 | 66 | 324 | 4.0 | 7.0 | 0.00 | 0.00 | 0.00 | 33 | 1007.8 |
| 20260508202219 | 67 | 59 | 1.0 | 5.0 | 0.00 | 0.00 | 0.00 | 37 | 1007.8 |
| 20260508201716 | 66 | 240 | 2.0 | 7.0 | 0.00 | 0.00 | 0.00 | 29 | 1007.9 |
| 20260508201212 | 66 | 93 | 2.0 | 8.0 | 0.00 | 0.00 | 0.00 | 31 | 1008.1 |
| 20260508200709 | 66 | 166 | 4.0 | 5.0 | 0.00 | 0.00 | 0.00 | 33 | 1007.9 |
| 20260508200205 | 66 | 303 | 4.0 | 9.0 | 0.00 | 0.00 | 0.00 | 32 | 1008.0 |
| 20260508195702 | 66 | 183 | 3.0 | 10.0 | 0.00 | 0.00 | 0.00 | 31 | 1008.2 |
| 20260508195158 | 65 | 336 | 6.0 | 6.0 | 0.00 | 0.00 | 0.00 | 32 | 1008.4 |
| 20260508194655 | 64 | 325 | 3.0 | 6.0 | 0.00 | 0.00 | 0.00 | 35 | 1008.4 |
| 20260508194152 | 64 | 14 | 1.0 | 3.0 | 0.00 | 0.00 | 0.00 | 36 | 1008.6 |
| 20260508193649 | 64 | 263 | 3.0 | 6.0 | 0.00 | 0.00 | 0.00 | 33 | 1008.6 |
| 20260508193145 | 64 | 40 | 2.0 | 7.0 | 0.00 | 0.00 | 0.00 | 34 | 1008.7 |
| 20260508192642 | 63 | 272 | 0.0 | 6.0 | 0.00 | 0.00 | 0.00 | 33 | 1008.6 |
| 20260508192140 | 64 | 151 | 3.0 | 8.0 | 0.00 | 0.00 | 0.00 | 31 | 1008.9 |
| 20260508191636 | 65 | 5 | 2.0 | 4.0 | 0.00 | 0.00 | 0.00 | 33 | 1008.8 |
| 20260508191133 | 64 | 321 | 1.0 | 7.0 | 0.00 | 0.00 | 0.00 | 36 | 1009.0 |
| 20260508190630 | 64 | 209 | 0.0 | 5.0 | 0.00 | 0.00 | 0.00 | 35 | 1009.2 |
| 20260508190127 | 63 | 189 | 1.0 | 8.0 | 0.00 | 0.00 | 0.00 | 32 | 1009.0 |
| 20260508185624 | 63 | 267 | 2.0 | 7.0 | 0.00 | 0.00 | 0.00 | 35 | 1008.9 |
| 20260508185121 | 62 | 258 | 2.0 | 8.0 | 0.00 | 0.00 | 0.00 | 35 | 1009.0 |
| 20260508184618 | 63 | 168 | 3.0 | 9.0 | 0.00 | 0.00 | 0.00 | 34 | 1009.0 |
| 20260508184115 | 64 | 31 | 0.0 | 7.0 | 0.00 | 0.00 | 0.00 | 32 | 1009.3 |
| 20260508183612 | 63 | 182 | 5.0 | 6.0 | 0.00 | 0.00 | 0.00 | 31 | 1009.4 |
| 20260508183107 | 63 | 305 | 1.0 | 5.0 | 0.00 | 0.00 | 0.00 | 32 | 1009.3 |
| 20260508182604 | 63 | 196 | 4.0 | 7.0 | 0.00 | 0.00 | 0.00 | 33 | 1009.3 |
| 20260508182055 | 63 | 199 | 2.0 | 8.0 | 0.00 | 0.00 | 0.00 | 36 | 1009.5 |
| 20260508181550 | 62 | 64 | 0.0 | 4.0 | 0.00 | 0.00 | 0.00 | 36 | 1009.5 |
| 20260508181048 | 62 | 217 | 3.0 | 5.0 | 0.00 | 0.00 | 0.00 | 32 | 1009.4 |
| 20260508180545 | 62 | 13 | 2.0 | 8.0 | 0.00 | 0.00 | 0.00 | 35 | 1009.8 |
| 20260508180041 | 62 | 337 | 4.0 | 7.0 | 0.00 | 0.00 | 0.00 | 38 | 1009.7 |
| 20260508175538 | 64 | 135 | 0.0 | 3.0 | 0.00 | 0.00 | 0.00 | 38 | 1009.7 |
| 20260508175035 | 64 | 96 | 0.0 | 5.0 | 0.00 | 0.00 | 0.00 | 35 | 1010.0 |
| 20260508174533 | 62 | 4 | 2.0 | 4.0 | 0.00 | 0.00 | 0.00 | 32 | 1010.0 |
| 20260508174029 | 61 | 359 | 5.0 | 7.0 | 0.00 | 0.00 | 0.00 | 34 | 1010.0 |
| 20260508173526 | 62 | 331 | 3.0 | 8.0 | 0.00 | 0.00 | 0.00 | 33 | 1010.3 |
| 20260508173022 | 61 | 161 | 3.0 | 5.0 | 0.00 | 0.00 | 0.00 | 33 | 1010.4 |
| 20260508172519 | 61 | 323 | 6.0 | 10.0 | 0.00 | 0.00 | 0.00 | 34 | 1010.5 |
| 20260508172016 | 62 | 317 | 3.0 | 8.0 | 0.00 | 0.00 | 0.00 | 40 | 1010.5 |
| 20260508171512 | 61 | 158 | 2.0 | 6.0 | 0.00 | 0.00 | 0.00 | 33 | 1010.1 |
| 20260508171009 | 61 | 151 | 4.0 | 7.0 | 0.00 | 0.00 | 0.00 | 31 | 1010.5 |
| 20260508170506 | 60 | 137 | 0.0 | 5.0 | 0.00 | 0.00 | 0.00 | 40 | 1010.7 |
| 20260508170004 | 61 | 310 | 1.0 | 5.0 | 0.00 | 0.00 | 0.00 | 40 | 1010.7 |
| 20260508165501 | 61 | 193 | 2.0 | 7.0 | 0.00 | 0.00 | 0.00 | 35 | 1010.7 |
| 20260508164956 | 61 | 305 | 2.0 | 5.0 | 0.00 | 0.00 | 0.00 | 34 | 1010.7 |
| 20260508164454 | 61 | 332 | 3.0 | 6.0 | 0.00 | 0.00 | 0.00 | 37 | 1010.8 |
| 20260508163950 | 60 | 116 | 1.0 | 4.0 | 0.00 | 0.00 | 0.00 | 39 | 1010.9 |
| 20260508163448 | 59 | 325 | 3.0 | 11.0 | 0.00 | 0.00 | 0.00 | 35 | 1011.1 |
| 20260508162944 | 60 | 322 | 3.0 | 7.0 | 0.00 | 0.00 | 0.00 | 39 | 1011.0 |
| 20260508162442 | 61 | 167 | 4.0 | 7.0 | 0.00 | 0.00 | 0.00 | 36 | 1011.1 |
| 20260508161938 | 60 | 205 | 2.0 | 3.0 | 0.00 | 0.00 | 0.00 | 37 | 1011.2 |
| 20260508161436 | 59 | 233 | 2.0 | 5.0 | 0.00 | 0.00 | 0.00 | 36 | 1011.2 |
| 20260508160933 | 59 | 323 | 4.0 | 6.0 | 0.00 | 0.00 | 0.00 | 38 | 1011.2 |
| 20260508160432 | 60 | 322 | 3.0 | 6.0 | 0.00 | 0.00 | 0.00 | 39 | 1011.2 |
| 20260508155927 | 60 | 54 | 1.0 | 5.0 | 0.00 | 0.00 | 0.00 | 38 | 1011.2 |
| 20260508155425 | 60 | 146 | 0.0 | 3.0 | 0.00 | 0.00 | 0.00 | 42 | 1011.3 |
| 20260508154921 | 60 | 226 | 0.0 | 2.0 | 0.00 | 0.00 | 0.00 | 40 | 1011.4 |
| 20260508154419 | 60 | 94 | 2.0 | 4.0 | 0.00 | 0.00 | 0.00 | 43 | 1011.5 |
| 20260508153915 | 59 | 188 | 3.0 | 10.0 | 0.00 | 0.00 | 0.00 | 37 | 1011.6 |
| 20260508153413 | 59 | 218 | 2.0 | 6.0 | 0.00 | 0.00 | 0.00 | 39 | 1011.4 |
| 20260508152909 | 58 | 104 | 1.0 | 5.0 | 0.00 | 0.00 | 0.00 | 39 | 1011.5 |
| 20260508152405 | 58 | 55 | 3.0 | 4.0 | 0.00 | 0.00 | 0.00 | 43 | 1011.4 |
| 20260508151902 | 58 | 107 | 4.0 | 7.0 | 0.00 | 0.00 | 0.00 | 39 | 1011.3 |
| 20260508151359 | 58 | 343 | 2.0 | 4.0 | 0.00 | 0.00 | 0.00 | 44 | 1011.3 |
| 20260508150855 | 58 | 356 | 2.0 | 6.0 | 0.00 | 0.00 | 0.00 | 44 | 1011.5 |
| 20260508150352 | 57 | 337 | 0.0 | 4.0 | 0.00 | 0.00 | 0.00 | 40 | 1011.6 |
| 20260508145848 | 56 | 25 | 4.0 | 5.0 | 0.00 | 0.00 | 0.00 | 36 | 1011.6 |
| 20260508145344 | 57 | 198 | 2.0 | 5.0 | 0.00 | 0.00 | 0.00 | 32 | 1011.8 |
| 20260508144841 | 56 | 29 | 3.0 | 5.0 | 0.00 | 0.00 | 0.00 | 41 | 1011.8 |
| 20260508144339 | 55 | 41 | 1.0 | 5.0 | 0.00 | 0.00 | 0.00 | 44 | 1011.8 |
| 20260508143836 | 55 | 177 | 4.0 | 7.0 | 0.00 | 0.00 | 0.00 | 43 | 1011.7 |
| 20260508143333 | 55 | 156 | 3.0 | 8.0 | 0.00 | 0.00 | 0.00 | 42 | 1011.7 |
| 20260508142830 | 54 | 336 | 4.0 | 6.0 | 0.00 | 0.00 | 0.00 | 48 | 1011.7 |
| 20260508142327 | 52 | 31 | 0.0 | 5.0 | 0.00 | 0.00 | 0.00 | 49 | 1011.6 |
| 20260508141823 | 52 | 156 | 3.0 | 4.0 | 0.00 | 0.00 | 0.00 | 44 | 1011.8 |
| 20260508141320 | 52 | 12 | 3.0 | 3.0 | 0.00 | 0.00 | 0.00 | 52 | 1011.7 |
| 20260508140818 | 51 | 94 | 2.0 | 4.0 | 0.00 | 0.00 | 0.00 | 52 | 1011.7 |
| 20260508140315 | 51 | 63 | 2.0 | 5.0 | 0.00 | 0.00 | 0.00 | 51 | 1011.8 |
| 20260508135810 | 51 | 164 | 2.0 | 4.0 | 0.00 | 0.00 | 0.00 | 51 | 1011.8 |
| 20260508135306 | 51 | 126 | 2.0 | 3.0 | 0.00 | 0.00 | 0.00 | 55 | 1012.0 |
| 20260508134756 | 50 | 36 | 3.0 | 3.0 | 0.00 | 0.00 | 0.00 | 56 | 1012.2 |
| 20260508134254 | 50 | 93 | 0.0 | 3.0 | 0.00 | 0.00 | 0.00 | 55 | 1012.2 |
| 20260508133751 | 49 | 98 | 0.0 | 3.0 | 0.00 | 0.00 | 0.00 | 57 | 1012.0 |
| 20260508133248 | 49 | 100 | 2.0 | 4.0 | 0.00 | 0.00 | 0.00 | 55 | 1012.2 |
| 20260508132746 | 49 | 88 | 2.0 | 5.0 | 0.00 | 0.00 | 0.00 | 55 | 1011.9 |
| 20260508132243 | 50 | 38 | 1.0 | 3.0 | 0.00 | 0.00 | 0.00 | 54 | 1012.0 |
| 20260508131739 | 50 | 86 | 1.0 | 2.0 | 0.00 | 0.00 | 0.00 | 57 | 1012.0 |
| 20260508131235 | 49 | 120 | 0.0 | 3.0 | 0.00 | 0.00 | 0.00 | 57 | 1012.1 |
| 20260508130732 | 48 | 109 | 2.0 | 3.0 | 0.00 | 0.00 | 0.00 | 58 | 1012.1 |
| 20260508130229 | 49 | 166 | 0.0 | 3.0 | 0.00 | 0.00 | 0.00 | 59 | 1012.0 |
| 20260508125725 | 49 | 129 | 0.0 | 2.0 | 0.00 | 0.00 | 0.00 | 58 | 1012.2 |
| 20260508125221 | 51 | 131 | 2.0 | 3.0 | 0.00 | 0.00 | 0.00 | 58 | 1012.0 |
| 20260508124720 | 50 | 358 | 2.0 | 3.0 | 0.00 | 0.00 | 0.00 | 58 | 1012.1 |
| 20260508124216 | 49 | 49 | 0.0 | 3.0 | 0.00 | 0.00 | 0.00 | 64 | 1012.0 |
| 20260508123715 | 48 | 147 | 1.0 | 2.0 | 0.00 | 0.00 | 0.00 | 67 | 1012.2 |
| 20260508123212 | 47 | 129 | 0.0 | 2.0 | 0.00 | 0.00 | 0.00 | 69 | 1012.1 |
| 20260508122708 | 47 | 93 | 1.0 | 3.0 | 0.00 | 0.00 | 0.00 | 71 | 1012.1 |
| 20260508122205 | 46 | 114 | 0.0 | 2.0 | 0.00 | 0.00 | 0.00 | 75 | 1012.0 |
| 20260508121703 | 45 | 112 | 2.0 | 3.0 | 0.00 | 0.00 | 0.00 | 77 | 1011.9 |
| 20260508121201 | 43 | 94 | 0.0 | 2.0 | 0.00 | 0.00 | 0.00 | 79 | 1012.0 |
| 20260508120658 | 43 | 93 | 0.0 | 2.0 | 0.00 | 0.00 | 0.00 | 80 | 1011.8 |
| 20260508120156 | 42 | 128 | 2.0 | 2.0 | 0.00 | 0.00 | 0.00 | 80 | 1011.5 |
| 20260508115654 | 42 | 116 | 2.0 | 2.0 | 0.00 | 0.00 | 0.00 | 80 | 1011.8 |
| 20260508115150 | 41 | 78 | 0.0 | 3.0 | 0.00 | 0.00 | 0.00 | 80 | 1011.6 |
| 20260508114647 | 41 | 102 | 1.0 | 3.0 | 0.00 | 0.00 | 0.00 | 81 | 1011.5 |
| 20260508114144 | 41 | 89 | 0.0 | 2.0 | 0.00 | 0.00 | 0.00 | 81 | 1011.7 |
| 20260508113641 | 40 | 100 | 1.0 | 2.0 | 0.00 | 0.00 | 0.00 | 82 | 1011.3 |
| 20260508113139 | 39 | 113 | 0.0 | 2.0 | 0.00 | 0.00 | 0.00 | 83 | 1011.3 |
| 20260508112635 | 39 | 77 | 0.0 | 2.0 | 0.00 | 0.00 | 0.00 | 84 | 1011.6 |
| 20260508112132 | 39 | 112 | 2.0 | 2.0 | 0.00 | 0.00 | 0.00 | 84 | 1011.5 |
| 20260508111628 | 39 | 92 | 1.0 | 2.0 | 0.00 | 0.00 | 0.00 | 85 | 1011.4 |
| 20260508111125 | 38 | 95 | 1.0 | 2.0 | 0.00 | 0.00 | 0.00 | 85 | 1011.3 |
| 20260508110618 | 38 | 89 | 1.0 | 2.0 | 0.00 | 0.00 | 0.00 | 86 | 1011.2 |
| 20260508110113 | 38 | 106 | 0.0 | 2.0 | 0.00 | 0.00 | 0.00 | 86 | 1011.3 |
| 20260508105608 | 38 | 93 | 1.0 | 2.0 | 0.00 | 0.00 | 0.00 | 86 | 1011.3 |
| 20260508105106 | 37 | 104 | 2.0 | 2.0 | 0.00 | 0.00 | 0.00 | 86 | 1011.2 |
| 20260508104603 | 37 | 104 | 2.0 | 2.0 | 0.00 | 0.00 | 0.00 | 86 | 1011.2 |
| 20260508104100 | 37 | 102 | 1.0 | 2.0 | 0.00 | 0.00 | 0.00 | 86 | 1011.2 |
| 20260508103557 | 37 | 104 | 2.0 | 2.0 | 0.00 | 0.00 | 0.00 | 86 | 1011.2 |
| 20260508103054 | 37 | 105 | 1.0 | 2.0 | 0.00 | 0.00 | 0.00 | 86 | 1011.2 |
| 20260508102552 | 37 | 101 | 2.0 | 2.0 | 0.00 | 0.00 | 0.00 | 86 | 1011.2 |
| 20260508102049 | 37 | 82 | 1.0 | 2.0 | 0.00 | 0.00 | 0.00 | 85 | 1011.1 |
| 20260508101547 | 37 | 106 | 1.0 | 3.0 | 0.00 | 0.00 | 0.00 | 86 | 1011.2 |
| 20260508101044 | 37 | 105 | 1.0 | 2.0 | 0.00 | 0.00 | 0.00 | 86 | 1011.4 |
| 20260508100542 | 37 | 108 | 2.0 | 3.0 | 0.00 | 0.00 | 0.00 | 86 | 1011.2 |
| 20260508100038 | 37 | 116 | 2.0 | 3.0 | 0.00 | 0.00 | 0.00 | 86 | 1011.4 |
| 20260508095536 | 37 | 107 | 2.0 | 3.0 | 0.00 | 0.00 | 0.00 | 86 | 1011.2 |
| 20260508095032 | 37 | 94 | 1.0 | 3.0 | 0.00 | 0.00 | 0.00 | 86 | 1011.3 |
| 20260508094529 | 37 | 85 | 1.0 | 3.0 | 0.00 | 0.00 | 0.00 | 86 | 1011.4 |
| 20260508094026 | 37 | 60 | 0.0 | 3.0 | 0.00 | 0.00 | 0.00 | 86 | 1011.3 |
| 20260508093523 | 37 | 116 | 1.0 | 2.0 | 0.00 | 0.00 | 0.00 | 86 | 1011.3 |
| 20260508093021 | 37 | 55 | 0.0 | 2.0 | 0.00 | 0.00 | 0.00 | 86 | 1011.5 |
| 20260508092518 | 37 | 57 | 0.0 | 3.0 | 0.00 | 0.00 | 0.00 | 87 | 1011.3 |
| 20260508092017 | 37 | 114 | 3.0 | 3.0 | 0.00 | 0.00 | 0.00 | 87 | 1011.4 |
| 20260508091514 | 37 | 124 | 2.0 | 3.0 | 0.00 | 0.00 | 0.00 | 87 | 1011.5 |
| 20260508091010 | 37 | 122 | 2.0 | 3.0 | 0.00 | 0.00 | 0.00 | 86 | 1011.5 |
| 20260508090509 | 37 | 103 | 1.0 | 2.0 | 0.00 | 0.00 | 0.00 | 86 | 1011.5 |
| 20260508090005 | 37 | 101 | 1.0 | 2.0 | 0.00 | 0.00 | 0.00 | 85 | 1011.5 |
| 20260508085501 | 37 | 120 | 2.0 | 2.0 | 0.00 | 0.00 | 0.00 | 85 | 1011.5 |
| 20260508084958 | 38 | 74 | 1.0 | 2.0 | 0.00 | 0.00 | 0.00 | 84 | 1011.6 |
| 20260508084455 | 38 | 95 | 2.0 | 3.0 | 0.00 | 0.00 | 0.00 | 84 | 1011.5 |
| 20260508083953 | 38 | 126 | 1.0 | 3.0 | 0.00 | 0.00 | 0.00 | 84 | 1011.4 |
| 20260508083449 | 38 | 76 | 2.0 | 3.0 | 0.00 | 0.00 | 0.00 | 84 | 1011.4 |
| 20260508082945 | 38 | 103 | 0.0 | 3.0 | 0.00 | 0.00 | 0.00 | 84 | 1011.4 |
| 20260508082442 | 38 | 74 | 2.0 | 3.0 | 0.00 | 0.00 | 0.00 | 84 | 1011.6 |